Location: Asheville, NC
(35.6000°N, 82.5500°W)
Time: 06:48:52
(UTC-05:00)

RS-15 - Pass Details

Date: 12 January 2018
Orbit: 1886 x 2158 km, 64.8° (Epoch: 17 January)

Event Time Altitude Azimuth Distance (km) Brightness Sun altitude
Rises 19:59:17 0° 327° (NNW) 5,543 10.7 -28.3°
Reaches altitude 10° 20:02:45 10° 325° (NW) 4,505 10.2 -29.0°
Maximum altitude 20:14:07 66° 247° (WSW) 2,108 8.2 -31.3°
Drops below altitude 10° 20:24:56 10° 168° (SSE) 4,290 9.7 -33.5°
Sets 20:28:10 0° 165° (SSE) 5,268 10.2 -34.1°
